Live-Position
3D-Globus wird geladen...
Über OneWeb SL0307
Group: 3 satellites
Beschreibung wird geladen...
Nächste Überflüge
Passes for default location (London). Set your location on the main map for personalized predictions.
Höhenverlauf
Loading altitude history...
No altitude history available
Zweizeiliger Elementsatz
1 49189U 21083D 26127.78549979 .00000291 00000-0 76198-3 0 9997
2 49189 87.8952 328.2854 0001763 91.8959 268.2372 13.13470362225629
Epoch: 7. Mai 2026 •
Age: 8 hours
Aktueller Status
Höhe 1230.5 km
Geschwindigkeit 7.24 km/s
Subsatellitenpunkt -50.60°S,
125.23°W
Startdatum 14. Sept. 2021
Alter 4.6 years
Typ internet
Startgruppe
Unknown Vehicle •
OneWeb Launch 10 •
34 satellites
OneWeb SL0292
49186
OneWeb SL0303 49187
OneWeb SL0306 49188
OneWeb SL0320 49190
OneWeb SL0321 49191
OneWeb SL0322 49192
OneWeb SL0324 49193
OneWeb SL0325 49194
OneWeb SL0326 49195
OneWeb SL0327 49196
OneWeb SL0328 49197
OneWeb SL0331 49198
OneWeb SL0333 49199
OneWeb SL0334 49200
OneWeb SL0335 49201
OneWeb SL0336 49202
OneWeb SL0337 49203
OneWeb SL0338 49204
OneWeb SL0339 49205
OneWeb SL0340 49206
...and 13 more
Technische Details
Klassifizierung Payload
Masse 148.00 kg
Trockenmasse 140.00 kg
Gesamtmasse 148.00 kg
Länge 1.30 m
Durchmesser 1.00 m
Spannweite 5.00 m
Form Trapezoid+2 pan
Hersteller ONEWUS
Bus-Typ ARROW
Phasenstatus In Orbit
Besitzer/Staat ONEWEBN/UK
Most Searched
Loading...